| time (UTC) | temp F | wind direction | speed MPH | gust MPH | rain 1hr in | rain 24hr in | rain mn in | humidity % | barometer mb |
| 20260901181404 | 95 | 184 | 3.0 | 6.0 | 0.00 | 0.00 | 0.00 | 43 | 1014.7 |
| 20260901173403 | 93 | 138 | 2.0 | 7.0 | 0.00 | 0.00 | 0.00 | 46 | 1015.1 |
| 20260901171406 | 92 | 90 | 3.0 | 5.0 | 0.00 | 0.00 | 0.00 | 45 | 1015.2 |
| 20260901170404 | 91 | 91 | 1.0 | 7.0 | 0.00 | 0.01 | 0.00 | 47 | 1015.2 |
| 20260901164403 | 90 | 105 | 3.0 | 7.0 | 0.00 | 0.07 | 0.00 | 49 | 1015.0 |
| 20260901163405 | 89 | 130 | 3.0 | 5.0 | 0.00 | 0.14 | 0.00 | 50 | 1015.1 |
| 20260901161404 | 88 | 114 | 3.0 | 7.0 | 0.00 | 0.20 | 0.00 | 51 | 1015.0 |
| 20260901160403 | 87 | 106 | 5.0 | 8.0 | 0.00 | 0.24 | 0.00 | 53 | 1014.9 |
| 20260901154403 | 85 | 149 | 3.0 | 5.0 | 0.00 | 0.24 | 0.00 | 55 | 1014.9 |
| 20260901153405 | 84 | 155 | 3.0 | 3.0 | 0.00 | 0.24 | 0.00 | 58 | 1014.8 |
| 20260901151405 | 80 | 153 | 1.0 | 2.0 | 0.00 | 0.24 | 0.00 | 65 | 1014.8 |
| 20260901150404 | 79 | 153 | 0.0 | 3.0 | 0.00 | 0.24 | 0.00 | 67 | 1014.7 |
| 20260901143405 | 78 | 153 | 2.0 | 3.0 | 0.00 | 0.24 | 0.00 | 70 | 1014.4 |
| 20260901141404 | 77 | 153 | 1.0 | 2.0 | 0.00 | 0.24 | 0.00 | 70 | 1014.4 |
| 20260901140405 | 77 | 153 | 1.0 | 3.0 | 0.00 | 0.24 | 0.00 | 70 | 1014.4 |
| 20260901133403 | 77 | 153 | 0.0 | 0.0 | 0.00 | 0.24 | 0.00 | 69 | 1014.3 |
| 20260901131404 | 77 | 153 | 0.0 | 0.0 | 0.00 | 0.24 | 0.00 | 69 | 1014.1 |
| 20260901130404 | 77 | 153 | 0.0 | 0.0 | 0.00 | 0.24 | 0.00 | 69 | 1014.1 |
| 20260901124404 | 78 | 153 | 0.0 | 0.0 | 0.00 | 0.24 | 0.00 | 69 | 1013.9 |
| 20260901121404 | 78 | 153 | 0.0 | 0.0 | 0.00 | 0.24 | 0.00 | 67 | 1013.9 |
| 20260901120406 | 78 | 153 | 0.0 | 0.0 | 0.00 | 0.24 | 0.00 | 66 | 1013.9 |
| 20260901113404 | 78 | 153 | 0.0 | 0.0 | 0.00 | 0.24 | 0.00 | 66 | 1013.6 |
| 20260901111404 | 78 | 153 | 0.0 | 0.0 | 0.00 | 0.24 | 0.00 | 66 | 1013.5 |
| 20260901110404 | 79 | 153 | 0.0 | 1.0 | 0.00 | 0.24 | 0.00 | 65 | 1013.3 |
| 20260901071403 | 80 | 153 | 0.0 | 0.0 | 0.00 | 0.24 | 0.00 | 61 | 1013.4 |
| 20260901070406 | 81 | 153 | 0.0 | 0.0 | 0.00 | 0.24 | 0.00 | 59 | 1013.3 |
| 20260901064408 | 82 | 153 | 0.0 | 0.0 | 0.00 | 0.24 | 0.00 | 58 | 1013.3 |
| 20260901063408 | 82 | 153 | 0.0 | 1.0 | 0.00 | 0.24 | 0.00 | 56 | 1013.3 |
| 20260901061403 | 82 | 153 | 0.0 | 0.0 | 0.00 | 0.24 | 0.00 | 57 | 1013.1 |
| 20260901060403 | 82 | 153 | 0.0 | 1.0 | 0.00 | 0.24 | 0.00 | 54 | 1013.2 |
| 20260901054404 | 83 | 153 | 0.0 | 1.0 | 0.00 | 0.24 | 0.00 | 54 | 1013.2 |
| 20260901053406 | 83 | 153 | 1.0 | 1.0 | 0.00 | 0.24 | 0.00 | 54 | 1013.0 |
| 20260901051405 | 83 | 153 | 0.0 | 0.0 | 0.00 | 0.24 | 0.00 | 53 | 1012.9 |
| 20260901044404 | 84 | 153 | 1.0 | 2.0 | 0.00 | 0.24 | 0.00 | 50 | 1012.8 |
| 20260901043404 | 85 | 153 | 1.0 | 3.0 | 0.00 | 0.24 | 0.00 | 50 | 1012.9 |
| 20260901041405 | 85 | 157 | 1.0 | 5.0 | 0.00 | 0.24 | 0.00 | 50 | 1012.7 |
| 20260901040403 | 85 | 157 | 1.0 | 5.0 | 0.00 | 0.24 | 0.00 | 49 | 1012.7 |
| 20260901034406 | 86 | 158 | 1.0 | 6.0 | 0.00 | 0.24 | 0.00 | 48 | 1012.7 |
| 20260901031404 | 87 | 178 | 2.0 | 7.0 | 0.00 | 0.24 | 0.00 | 49 | 1012.1 |
| 20260901030407 | 87 | 135 | 1.0 | 3.0 | 0.00 | 0.24 | 0.00 | 45 | 1012.0 |
| 20260901023406 | 87 | 138 | 2.0 | 3.0 | 0.00 | 0.24 | 0.00 | 45 | 1011.5 |
| 20260901021407 | 87 | 139 | 2.0 | 5.0 | 0.00 | 0.24 | 0.00 | 45 | 1011.4 |
| 20260901000405 | 91 | 152 | 3.0 | 8.0 | 0.00 | 0.10 | 0.00 | 44 | 1011.8 |
| 20260831234403 | 92 | 134 | 2.0 | 10.0 | 0.00 | 0.10 | 0.00 | 42 | 1012.0 |
| 20260831233403 | 93 | 113 | 3.0 | 10.0 | 0.00 | 0.10 | 0.00 | 41 | 1012.2 |
| 20260831231403 | 93 | 107 | 5.0 | 9.0 | 0.00 | 0.10 | 0.00 | 41 | 1012.4 |
| 20260831230403 | 93 | 93 | 6.0 | 12.0 | 0.00 | 0.10 | 0.00 | 40 | 1012.4 |
| 20260831224403 | 92 | 61 | 2.0 | 7.0 | 0.00 | 0.10 | 0.00 | 43 | 1012.5 |
| 20260831223403 | 92 | 36 | 7.0 | 13.0 | 0.00 | 0.24 | 0.00 | 43 | 1012.6 |
| 20260831221404 | 92 | 125 | 4.0 | 14.0 | 0.00 | 0.24 | 0.00 | 41 | 1013.1 |
| 20260831220403 | 93 | 131 | 6.0 | 13.0 | 0.00 | 0.10 | 0.00 | 45 | 1013.1 |
| 20260831213403 | 93 | 125 | 3.0 | 12.0 | 0.00 | 0.10 | 0.00 | 43 | 1013.9 |
| 20260831211406 | 93 | 128 | 7.0 | 9.0 | 0.00 | 0.24 | 0.00 | 46 | 1014.4 |
| 20260831211403 | 93 | 128 | 8.0 | 10.0 | 0.00 | 0.10 | 0.00 | 46 | 1014.4 |
| 20260831204406 | 92 | 140 | 7.0 | 9.0 | 0.00 | 0.24 | 0.00 | 48 | 1015.0 |
| 20260831204403 | 92 | 140 | 8.0 | 9.0 | 0.00 | 0.10 | 0.00 | 48 | 1015.0 |
| 20260831201404 | 90 | 143 | 7.0 | 12.0 | 0.00 | 0.24 | 0.00 | 50 | 1015.1 |
| 20260831194403 | 89 | 117 | 8.0 | 10.0 | 0.00 | 0.24 | 0.00 | 55 | 1015.4 |
| 20260831193404 | 87 | 153 | 6.0 | 9.0 | 0.00 | 0.24 | 0.00 | 58 | 1015.4 |
| 20260831191404 | 85 | 82 | 4.0 | 12.0 | 0.00 | 0.24 | 0.00 | 56 | 1015.6 |
| 20260831183403 | 85 | 67 | 5.0 | 8.0 | 0.00 | 0.10 | 0.00 | 58 | 1015.9 |